This demonstration page uses our WeatherBlox Daily Observations layout. Learn more.

Left ArrowRight Arrow

34.16533, -84.80231

Hourly Observations for November 29, 2020

Temp ( °F °C ) Dew Point ( °F °C ) Humidity (%) Winds ( mph kmh ) Pressure ( in mb ) Visibility ( mi km ) Precip ( " mm )
12:53 am 00:53 Clear 46 7.8 43 6.1 89 89 Calm 30.09 1019 10 16 0.00 0.00
1:53 am 01:53 Clear 46 7.8 43 6.1 89 89 Calm 30.08 1019 10 16 0.00 0.00
2:53 am 02:53 Clear 46 7.8 43 6.1 89 89 Calm 30.09 1019 10 16 0.00 0.00
3:53 am 03:53 Clear 45 7.2 43 6.1 93 93 Calm 30.07 1018 10 16 0.00 0.00
4:53 am 04:53 Clear 45 7.2 42 5.6 90 90 Calm 30.07 1018 9 14 0.00 0.00
5:23 am 05:23 Partly Cloudy 45 7.2 43 6.1 93 93 Calm 30.11 1020 9 14 0.00 0.00
5:32 am 05:32 Mostly Cloudy 46 7.8 43 6.1 89 89 Calm 30.12 1020 8 13 0.00 0.00
5:39 am 05:39 Mostly Cloudy 47 8.3 44 6.7 90 90 Calm 30.11 1020 8 13 0.00 0.00
5:53 am 05:53 Cloudy 48 8.9 45 7.2 89 89 Calm 30.08 1019 8 13 0.00 0.00
6:23 am 06:23 Cloudy with Mist and Fog 48 8.9 46 7.8 93 93 Calm 30.11 1020 2 2 0.00 0.00
6:44 am 06:44 Cloudy with Mist and Fog 49 9.4 46 7.8 90 90 Calm 30.11 1020 3 5 0.00 0.00
6:53 am 06:53 Cloudy with Mist and Fog 49 9.4 47 8.3 93 93 Calm 30.08 1019 3 5 0.00 0.00
7:05 am 07:05 Cloudy with Mist and Fog 50 10 47 8.3 89 89 Calm 30.11 1020 2 3 0.00 0.00
7:17 am 07:17 Mostly Cloudy with Mist and Fog 51 10.6 49 9.4 92 92 ENE 3 6 30.10 1019 1 1 0.00 0.00
7:28 am 07:28 Cloudy with Mist and Fog 52 11.1 50 10 93 93 ENE 3 6 30.11 1020 2 2 0.00 0.00
7:38 am 07:38 Cloudy with Mist and Fog 52 11.1 50 10 93 93 Calm 30.11 1020 2 3 0.00 0.00
7:53 am 07:53 Cloudy with Mist and Fog 52 11.1 50 10 93 93 Calm 30.08 1019 3 5 0.00 0.00
8:16 am 08:16 Cloudy with Mist and Fog 53 11.7 51 10.6 93 93 E 3 6 30.10 1019 5 8 0.00 0.00
8:36 am 08:36 Cloudy 54 12.2 51 10.6 90 90 VRB 3 6 30.11 1020 7 11 0.00 0.00
8:53 am 08:53 Cloudy 54 12.2 51 10.6 90 90 E 3 6 30.10 1019 8 13 0.00 0.00
9:53 am 09:53 Cloudy 56 13.3 51 10.6 84 84 VRB 5 7 30.10 1019 10 16 0.00 0.00
10:35 am 10:35 Cloudy 56 13.3 51 10.6 84 84 ESE 5 7 30.11 1020 10 16 0.00 0.00
10:53 am 10:53 Cloudy 57 13.9 51 10.6 81 81 SE 8 13 30.10 1019 10 16 0.00 0.00
11:53 am 11:53 Cloudy 57 13.9 50 10 78 78 VRB 6 9 30.08 1019 10 16 0.00 0.00
12:53 pm 12:53 Cloudy 57 13.9 51 10.6 81 81 ESE 10 17 30.03 1017 10 16 0.00 0.00
1:53 pm 13:53 Cloudy 57 13.9 51 10.6 81 81 E 9 15 29.98 1015 10 16 0.00 0.00
2:53 pm 14:53 Cloudy 57 13.9 52 11.1 83 83 SE 8 13 29.95 1014 10 16 0.00 0.00
3:53 pm 15:53 Cloudy with Light Rain 56 13.3 53 11.7 90 90 E 3 6 29.94 1014 6 10 0.04 1.02
4:11 pm 16:11 Cloudy with Light Rain 56 13.3 53 11.7 90 90 E 3 6 29.95 1014 6 10 0.03 0.76
4:53 pm 16:53 Cloudy with Rain 56 13.3 53 11.7 90 90 E 3 6 29.93 1014 5 8 0.11 2.79
5:29 pm 17:29 Cloudy with Light Rain 56 13.3 53 11.7 90 90 Calm 29.93 1014 7 11 0.08 2.03
5:53 pm 17:53 Cloudy with Rain 56 13.3 53 11.7 90 90 VRB 3 6 29.91 1013 6 10 0.13 3.30
6:53 pm 18:53 Cloudy with Light Rain 56 13.3 53 11.7 90 90 Calm 29.89 1012 6 10 0.16 4.06
7:53 pm 19:53 Cloudy with Light Rain 56 13.3 53 11.7 90 90 E 6 9 29.83 1010 6 10 0.14 3.56
8:11 pm 20:11 Cloudy with Light Rain 56 13.3 53 11.7 90 90 VRB 6 9 29.84 1011 9 14 0.01 0.25
8:24 pm 20:24 Cloudy with Light Rain 56 13.3 53 11.7 90 90 E 6 9 29.83 1010 7 11 0.03 0.76
8:53 pm 20:53 Cloudy with Rain 56 13.3 53 11.7 90 90 E 7 11 29.78 1008 5 8 0.10 2.54
9:35 pm 21:35 Cloudy 56 13.3 53 11.7 90 90 ESE 9 15 29.78 1008 10 16 0.03 0.76
9:53 pm 21:53 Cloudy with Rain 56 13.3 53 11.7 90 90 E 8 13 29.75 1008 4 6 0.06 1.52
10:08 pm 22:08 Cloudy with Light Rain 56 13.3 53 11.7 90 90 E 6 9 29.76 1008 6 10 0.01 0.25
10:32 pm 22:32 Cloudy with Rain 56 13.3 53 11.7 90 90 VRB 6 9 29.75 1007 4 6 0.07 1.78
10:53 pm 22:53 Cloudy with Rain 56 13.3 53 11.7 90 90 SE 8 13 29.71 1006 6 10 0.13 3.30
11:00 pm 23:00 Cloudy with Light Rain 56 13.3 53 11.7 90 90 VRB 5 7 29.73 1007 5 8 0.01 0.25
11:17 pm 23:17 Cloudy with Light Rain 56 13.3 53 11.7 90 90 ESE 7 11 29.72 1006 6 10 0.02 0.51
11:53 pm 23:53 Cloudy 56 13.3 53 11.7 90 90 ESE 7 11 29.67 1005 8 13 0.02 0.51

Powered by AerisWeather